Regional Weather Roundup
Issued by NWS Grand Forks, ND

Home | Current Version | Previous Version | Text Only | Print | Product List | Glossary On
Versions: 1 2 3 4 5 6 7 8 9 10 11 12 13 14 15 16 17 18 19 20 21 22 23 24 25 26 27 28 29 30 31 32 33 34 35 36 37 38 39 40 41 42 43 44 45 46 47 48 49 50
000
ASUS43 KFGF 111710
RWRFGF
PRAIRIE TO PINES  WEATHER ROUNDUP
NATIONAL WEATHER SERVICE EASTERN NORTH DAKOTA/GRAND FORKS ND
1200 PM CDT FRI JUL 11 2014

 **SATELLITE DATA USED TO AUGMENT SKY COVER AT AUTOMATED STATIONS**
 *****  WEATHER ACROSS EASTERN NORTH DAKOTA  *****

CITY           SKY/WX    TMP DP  RH WIND       PRES   REMARKS
GRAND FORKS    MOSUNNY   80  69  69 N10       29.88R
GRAND FRKS AFB MOSUNNY   80  71  71 N10       29.90R
GRAND FRKS NWS   N/A     81 N/A N/A N14         N/A
DEVILS LAKE    MOSUNNY   79  52  38 NW9       29.94S
FARGO          SUNNY     83  71  67 NW7       29.87S
WAHPETON ARPT  MOSUNNY   81  68  65 W7        29.90R
$$

 ***** WEATHER ACROSS CENTRAL AND WESTERN NORTH DAKOTA  *****

CITY           SKY/WX    TMP DP  RH WIND       PRES   REMARKS
BISMARCK       MOSUNNY   79  59  50 N10       29.99S
MINOT          CLOUDY    70  54  56 NW15      30.01R
JAMESTOWN      MOSUNNY   80  65  59 N8        29.95R
MINOT AFB      PTSUNNY   72  56  57 NW13      30.01R
GARRISON         N/A     74  63  68 N7        30.00S
WILLISTON      PTSUNNY   73  51  46 N16       30.07S
DICKINSON      MOSUNNY   69  59  70 SE3       30.06R
HETTINGER      SUNNY     79  59  50 N20G28    30.05R
$$

 *****  OTHER AIRPORT OBSERVATIONS IN OUR AREA  *****

CITY           SKY/WX    TMP DP  RH WIND       PRES   REMARKS
WALHALLA       FAIR      81  55  41 NW8         N/A
GRAFTON AIRPOR FAIR      81  59  47 N12       29.88F
VALLEY CITY AR FAIR      81  66  61 N15       29.93R
CANDO          FAIR      75  57  53 W9        29.96S
CAVALIER APRT  FAIR      79  54  41 NW12      29.89S
GWINNER        SUNNY     82  70  65 N6        29.92R
SHEYENNE NWR     N/A     84  71  65 N7        29.95S
ROLLA          FAIR      73  55  53 NW12      29.98S
 ***** THE ABOVE OBSERVATIONS ARE NON NWS ARE NOT QUALITY
       CONTROLLED AND MAY MIS-REPORT RAIN FOR SNOW...
$$

  *****  WEATHER ACROSS NORTHERN MINNESOTA  *****

CITY           SKY/WX    TMP DP  RH WIND       PRES   REMARKS
FLAG ISLAND    CLOUDY    72  64  78 W15       29.83R HAZE
WARROAD        MOSUNNY   77  70  78 W12       29.85S
ROSEAU         SUNNY     77  70  78 W8        29.85S
HALLOCK        SUNNY     81  54  39 NW12      29.87S
THF RVR FALLS  PTSUNNY   79  68  69 NW13      29.88S
BAUDETTE       PTSUNNY   79  67  66 W10G22    29.84S
WASKISH        NOT AVBL
CROOKSTON      MOSUNNY   81  70  69 NW13      29.88S
$$
  *****  WEATHER ACROSS CENTRAL AND WEST MINNESOTA  *****

CITY           SKY/WX    TMP DP  RH WIND       PRES   REMARKS
FOSSTON        MOSUNNY   79  66  65 W8        29.89R
BEMIDJI        PTSUNNY   76  69  80 S6        29.88S
PARK RAPIDS    CLOUDY    76  70  82 SW6       29.89S
ELBOW LAKE     CLOUDY    77  70  78 SW5       29.90R
WADENA         MOSUNNY   77  70  78 SW7       29.89F
DETROIT LAKES  MOSUNNY   79  70  73 W7        29.91R
MOORHEAD       NOT AVBL
FERGUS FALLS   MOSUNNY   79  66  65 CALM      29.89R
MORRIS MN      MOSUNNY   81  72  74 NW5       29.90R
STAPLES        CLOUDY    72  70  94 S7        29.91S
$$
  *****  WEATHER ELSEWHERE ACROSS MINNESOTA  *****

CITY           SKY/WX    TMP DP  RH WIND       PRES   REMARKS
DULUTH         CLOUDY    68  64  87 SW13      29.93F
INTRNTL FALLS  CLOUDY    73  67  81 SW9       29.84F
ELY            CLOUDY    66  63  88 SW9       29.90F
CLOQUET        CLOUDY    70  64  83 S14G22    29.93F
WHEATON        MOSUNNY   79  70  73 CALM      29.90S
BRAINERD       CLOUDY    75  67  76 S9        29.92R
HIBBING        CLOUDY    70  65  84 SW8       29.91S
ALEXANDRIA     PTSUNNY   76  69  79 S7        29.93S
SAINT CLOUD    CLOUDY    72  66  83 S14       29.94R
MINNEAPOLIS    PTSUNNY   69  64  84 S12G22    29.96F
$$

  *****  WEATHER ACROSS SOUTH DAKOTA  *****

CITY           SKY/WX    TMP DP  RH WIND       PRES   REMARKS
SIOUX FALLS    CLOUDY    78  69  73 SW10      29.95R
BROOKINGS      NOT AVBL
WATERTOWN      SUNNY     81  71  71 NW7       29.92R
HURON          SUNNY     86  70  58 VRB5      29.90R HX  90
SISSETON         N/A     84  71  65 VRB5      29.89R
ABERDEEN       SUNNY     81  70  69 N8        29.92R
MITCHELL       SUNNY     82  72  71 S9        29.91S
PIERRE         SUNNY     85  70  60 VRB6      29.93R
MOBRIDGE       CLOUDY    78  70  76 N14G20    29.95R
RAPID CITY     SUNNY     83  63  50 N13G20    30.04R
$$

  *****  SOME WEATHER IN NEARBY STATES *****

CITY           SKY/WX    TMP DP  RH WIND       PRES   REMARKS
GLASGOW MT     SUNNY     71  52  50 NW12      30.12R
GREAT FALLS MT CLOUDY    63  47  55 NE8       30.21F
CHEYENNE WY    SUNNY     81  53  37 NE7       30.20S
SCOTTSBLUFF NE PTSUNNY   79  62  56 CALM      30.07R
OMAHA NE       CLOUDY    75  67  76 S17       29.97F
DES MOINES IA  CLOUDY    71  67  87 SE12      30.03F
DAVENPORT IA   PTSUNNY   77  63  61 S10       30.15F
CHICAGO IL     PTSUNNY   79  52  38 S10       30.19F
EAU CLAIRE WI  CLOUDY    69  61  75 S16       30.05F
LA CROSSE WI   RAIN      67  62  84 SE8       30.11F
$$

  *****  SOME NATIONAL WEATHER *****

CITY           SKY/WX    TMP DP  RH WIND       PRES   REMARKS
LA GUARDIA NY  MOSUNNY   82  52  35 NE12      30.19F
RALEIGH NC     CLOUDY    78  66  66 E5        30.21S
ATLANTA GA     HVY RAIN  81  72  74 W14G26    30.17F
NEW ORLEANS LA MOSUNNY   89  74  60 N5        30.15S HX  98
OKLAHOMA CITY  MOSUNNY   88  64  44 S16G23    30.10S
ALBUQUERQUE NM MOSUNNY   82  51  34 SW5       30.19S
SALT LAKE CITY LGT RAIN  70  61  73 S6        30.11R
LOS ANGELES CA MOSUNNY   72  59  63 SW8       30.01R
BOISE ID       SUNNY     82  47  29 CALM      29.95F
SEATTLE WA     SUNNY     73  55  53 VRB3      29.98S
$$

*** WEATHER ACROSS MANITOBA...SASKATCHEWAN AND ONTARIO ***
                ***ONTARIO***

CITY           SKY/WX    TMP DP  RH WIND       PRES   REMARKS
GERALDTON      CLOUDY    72  61  68 S8        29.93F
THUNDER BAY    LGT RAIN  61  59  94 E5        29.92F
SIOUX LOOKOUT  CLOUDY    70  64  83 SW8G17    29.80F
TORONTO        MOSUNNY   73  54  49 S10       30.25S
BIG TROUT LK   PTSUNNY   63  59  88 S14G20    29.63R
PICKLE LAKE    PTSUNNY   75  63  64 SW15G23   29.71F
DRYDEN         CLOUDY    72  66  83 SW14G20   29.80S
KENORA         PTSUNNY   73  64  73 W7        29.82F
$$
                *** MANITOBA***

CITY           SKY/WX    TMP DP  RH WIND       PRES   REMARKS
BRANDON        MOSUNNY   72  50  46 NW21G28   29.94R
DAUPHIN        PTSUNNY   68  55  64 NW20G36   29.88R
ISLAND LAKE    MOSUNNY   72  52  49 W16G23    29.59F
PILOT MOUND    NOT AVBL
THE PAS        CLOUDY   N/A N/A N/A NW28G35     N/A
THOMPSON       LGT RAIN  63  59  88 SW13      29.49S
WINNIPEG       MOSUNNY   77  54  44 W14G24    29.84S
LYNN LAKE      PTSUNNY   55  52  88 NW23G38   29.55R
CHURCHILL      PTSUNNY   68  57  68 W13       29.40F
GILLAM         PTSUNNY  N/A N/A N/A S3          N/A  THUNDER
$$
                ***SASKATCHEWAN***

CITY           SKY/WX    TMP DP  RH WIND       PRES   REMARKS
ESTEVAN        CLOUDY    68  54  60 NW14G22   30.05F
KINDERSLEY     MOSUNNY   63  50  63 NW10G20   30.14S
LLOYDMINSTER   MOSUNNY   64  52  63 NW12G21   30.09R
PRINCE ALBERT  MOSUNNY   64  50  59 NW16G28   29.96R
REGINA         PTSUNNY   64  54  68 NW18G25   30.06S
YORKTON        PTSUNNY   64  52  63 W21G30    29.95R
N. BATTLEFORD  SUNNY     66  50  55 W14G20    30.08S
LA RONGE       PTSUNNY   64  48  55 NW16G30   29.86R
SASKATOON      MOSUNNY   66  52  59 NW17G23   30.06R SMOKE
SWIFT CURRENT  MOSUNNY   59  52  77 NW14      30.14S
$$
NOTE: THESE ARE AUTOMATED STATIONS WITH LIMITED QUALITY CONTROL
      "FAIR" INDICATES FEW OR NO CLOUDS BELOW 12,000 FEET WITH NO
      SIGNIFICANT WEATHER AND/OR OBSTRUCTIONS TO VISIBILITY.
      SKY/WX - SKY CONDITION AND SIGNIFICANT WEATHER.
      TMP - AIR TEMPERATURE.    DP   - DEWPOINT TEMPERATURE.
      RH  - RELATIVE HUMIDITY.  PRES - PRESSURE.
      HX  - HEAT INDEX.         WCI  - WIND CHILL INDEX.
$



USA.gov is the U.S. government's official web portal to all federal, state and local government web resources and services.